CW4114 Weather Reports


time (UTC)temp
C
wind
direction
speed
KPH
gust
KPH
rain 1hr
cm
rain 24hr
cm
rain mn
cm
humidity
%
barometer
mb
20260902002942 23 192 1.6 9.7 0.00 0.00 0.00 91 1010.2
20260902002218 23 151 3.2 9.7 0.00 0.00 0.00 92 1010.3
20260902001718 22 212 3.2 9.7 0.00 0.00 0.00 92 1010.4
20260902001217 22 121 3.2 16.1 0.00 0.00 0.00 93 1010.4
20260902000715 22 178 3.2 16.1 0.00 0.00 0.00 93 1010.4
20260902000213 22 195 6.4 9.7 0.00 0.00 0.00 93 1010.4
20260901235708 22 158 1.6 8.0 0.00 0.00 0.00 92 1010.4
20260901235208 22 80 0.0 4.8 0.00 0.00 0.00 92 1010.4
20260901234931 22 68 3.2 8.0 0.00 0.00 0.00 92 1010.5
20260901234207 22 58 4.8 8.0 0.00 0.00 0.00 91 1010.5
20260901233706 22 90 3.2 4.8 0.00 0.00 0.00 91 1010.5
20260901233207 22 55 3.2 4.8 0.00 0.00 0.00 91 1010.4
20260901232935 22 68 3.2 6.4 0.00 0.00 0.00 92 1010.4
20260901232208 22 62 3.2 6.4 0.00 0.00 0.00 92 1010.4
20260901231707 22 75 1.6 6.4 0.00 0.00 0.00 93 1010.4
20260901231210 21 59 3.2 8.0 0.00 0.00 0.00 93 1010.5
20260901230707 21 61 3.2 8.0 0.00 0.00 0.00 93 1010.6
20260901230209 21 82 3.2 6.4 0.00 0.00 0.00 93 1010.7
20260901225654 21 73 3.2 4.8 0.00 0.00 0.00 93 1010.8
20260901225427 21 69 0.0 4.8 0.00 0.00 0.00 93 1010.8
20260901224926 21 103 3.2 8.0 0.00 0.00 0.00 94 1010.9
20260901224154 21 76 4.8 8.0 0.00 0.00 0.00 94 1010.8
20260901223653 20 63 3.2 8.0 0.00 0.00 0.00 94 1010.8
20260901223152 20 87 3.2 11.3 0.00 0.00 0.00 94 1010.9
20260901222651 20 78 4.8 11.3 0.00 0.00 0.00 94 1011.0
20260901222419 20 73 6.4 11.3 0.00 0.00 0.00 94 1011.0
20260901221651 20 104 4.8 11.3 0.00 0.00 0.00 93 1011.0
20260901221150 20 89 8.0 17.7 0.00 0.00 0.00 93 1011.0
20260901220921 20 83 9.7 17.7 0.00 0.00 0.00 93 1011.1
20260901220150 20 116 6.4 16.1 0.00 0.00 0.00 93 1011.1
20260901215650 20 80 8.0 14.5 0.00 0.00 0.00 92 1011.1
20260901215418 20 97 8.0 14.5 0.00 0.00 0.00 92 1011.1
20260901214650 20 95 4.8 11.3 0.00 0.00 0.00 92 1011.1
20260901214416 20 76 8.0 11.3 0.00 0.00 0.00 92 1011.2
20260901213650 20 110 4.8 11.3 0.00 0.00 0.00 92 1011.2
20260901213149 20 97 6.4 16.1 0.00 0.00 0.00 92 1011.3
20260901212649 20 104 6.4 16.1 0.00 0.00 0.00 92 1011.3
20260901212149 20 90 8.0 14.5 0.00 0.00 0.00 92 1011.3
20260901211648 21 87 9.7 11.3 0.00 0.00 0.00 91 1011.3
20260901211416 21 86 6.4 11.3 0.00 0.00 0.00 91 1011.3
20260901210647 21 55 6.4 11.3 0.00 0.00 0.00 91 1011.5
20260901210152 21 85 6.4 11.3 0.00 0.00 0.00 92 1011.4
20260901205513 21 58 8.0 11.3 0.00 0.00 0.00 92 1011.4
20260901205012 21 78 6.4 11.3 0.00 0.00 0.00 93 1011.5
20260901204737 20 61 6.4 11.3 0.00 0.00 0.00 93 1011.4
20260901204008 20 103 3.2 14.5 0.00 0.00 0.00 93 1011.6
20260901203509 20 48 6.4 14.5 0.00 0.00 0.00 94 1011.6
20260901203008 20 100 4.8 11.3 0.00 0.00 0.00 94 1011.7
20260901202506 20 73 3.2 11.3 0.00 0.00 0.00 95 1011.7
20260901202004 20 154 6.4 11.3 0.00 0.00 0.00 94 1011.8
20260901201507 20 68 4.8 9.7 0.00 0.00 0.00 95 1011.9
20260901201002 20 109 8.0 9.7 0.00 0.00 0.00 94 1012.0
20260901200502 20 97 4.8 11.3 0.00 0.00 0.00 95 1012.1
20260901200255 20 83 4.8 11.3 0.00 0.00 0.00 94 1012.2
20260901195506 20 92 6.4 9.7 0.00 0.00 0.00 94 1012.2
20260901195042 20 75 4.8 9.7 0.00 0.00 0.00 94 1012.2
20260901194503 20 89 4.8 11.3 0.00 0.00 0.00 93 1012.3
20260901194000 20 62 6.4 11.3 0.00 0.00 0.00 94 1012.2
20260901193500 20 65 4.8 11.3 0.00 0.00 0.00 94 1012.1
20260901192958 20 54 8.0 11.3 0.00 0.00 0.00 93 1012.2
20260901192729 20 99 6.4 11.3 0.00 0.00 0.00 93 1012.1
20260901191954 20 95 4.8 11.3 0.00 0.00 0.00 93 1012.2
20260901191719 20 65 6.4 11.3 0.00 0.00 0.00 93 1012.3
20260901190951 20 107 9.7 11.3 0.00 0.00 0.00 93 1012.3
20260901190449 20 45 4.8 11.3 0.00 0.00 0.00 94 1012.4
20260901185950 20 35 3.2 11.3 0.00 0.00 0.00 93 1012.5
20260901185720 20 85 4.8 11.3 0.00 0.00 0.00 94 1012.5
20260901184950 20 62 6.4 9.7 0.00 0.00 0.00 93 1012.5
20260901184448 20 55 6.4 9.7 0.00 0.00 0.00 93 1012.5
20260901183949 20 52 3.2 8.0 0.00 0.00 0.00 93 1012.4
20260901183531 21 34 6.4 9.7 0.00 0.00 0.00 92 1012.4
20260901183027 21 14 3.2 9.7 0.00 0.00 0.00 93 1012.4
20260901182516 21 68 3.2 8.0 0.00 0.00 0.00 93 1012.5
20260901181949 21 75 3.2 9.7 0.00 0.00 0.00 93 1012.5
20260901181449 21 75 3.2 9.7 0.00 0.00 0.00 92 1012.4
20260901180947 21 220 1.6 9.7 0.00 0.00 0.00 93 1012.4
20260901180448 21 78 4.8 8.0 0.00 0.00 0.00 93 1012.4
20260901175946 21 18 3.2 11.3 0.00 0.00 0.00 92 1012.5
20260901175447 21 348 4.8 11.3 0.00 0.00 0.00 91 1012.4
20260901175215 21 93 3.2 9.7 0.00 0.00 0.00 92 1012.4
20260901174449 21 71 4.8 9.7 0.00 0.00 0.00 92 1012.3
20260901172946 21 72 3.2 8.0 0.00 0.00 0.00 91 1012.2
20260901172449 21 59 3.2 8.0 0.00 0.00 0.00 93 1012.0
20260901171946 21 62 6.4 11.3 0.00 0.00 0.00 93 1012.2
20260901171442 21 72 6.4 11.3 0.00 0.00 0.00 91 1012.2
20260901170939 21 76 8.0 11.3 0.00 0.00 0.00 90 1012.1
20260901170439 22 69 8.0 11.3 0.00 0.00 0.00 88 1012.0
20260901165939 23 52 3.2 8.0 0.00 0.00 0.00 90 1012.1
20260901165439 22 104 3.2 6.4 0.00 0.00 0.00 91 1012.0
20260901164941 21 86 3.2 6.4 0.00 0.00 0.00 93 1012.1
20260901164441 21 99 3.2 6.4 0.00 0.00 0.00 92 1012.1
20260901163936 21 71 3.2 8.0 0.00 0.00 0.00 92 1012.3
20260901163434 21 83 3.2 9.7 0.00 0.00 0.00 94 1012.3
20260901162934 21 80 4.8 9.7 0.00 0.00 0.00 92 1012.4
20260901162434 21 59 4.8 8.0 0.00 0.00 0.00 93 1012.5
20260901161933 21 61 6.4 8.0 0.00 0.00 0.00 93 1012.4
20260901161435 21 51 4.8 9.7 0.00 0.00 0.00 93 1012.5
20260901160933 21 85 4.8 9.7 0.00 0.00 0.00 93 1012.5
20260901160436 21 68 6.4 8.0 0.00 0.00 0.00 93 1012.5
20260901155932 20 49 3.2 6.4 0.00 0.00 0.00 94 1012.7
20260901155433 20 42 3.2 6.4 0.00 0.00 0.00 95 1012.7
20260901154933 20 59 4.8 6.4 0.00 0.00 0.00 95 1012.9
20260901154434 20 56 3.2 4.8 0.00 0.00 0.00 97 1013.0
20260901153934 19 37 3.2 6.4 0.00 0.00 0.00 95 1013.0
20260901153432 19 40 3.2 6.4 0.00 0.00 0.00 96 1013.0
20260901152934 19 35 3.2 6.4 0.00 0.00 0.00 96 1013.1
20260901152432 19 55 3.2 6.4 0.00 0.00 0.00 96 1013.1
20260901151932 19 28 1.6 6.4 0.00 0.00 0.00 96 1013.1
20260901151432 19 18 1.6 6.4 0.00 0.00 0.00 96 1013.2
20260901150930 19 12 3.2 6.4 0.00 0.00 0.00 96 1013.2
20260901150430 19 15 1.6 4.8 0.00 0.00 0.00 97 1013.1
20260901145929 19 24 1.6 6.4 0.00 0.00 0.00 97 1013.0
20260901145430 19 69 4.8 6.4 0.00 0.00 0.00 97 1012.8
20260901144925 19 78 1.6 6.4 0.00 0.03 0.00 97 1012.8
20260901144424 19 71 3.2 6.4 0.00 0.03 0.00 97 1012.7
20260901143925 19 79 1.6 6.4 0.00 0.03 0.00 97 1012.6
20260901143655 19 65 3.2 6.4 0.00 0.03 0.00 97 1012.8
20260901142920 19 19 1.6 4.8 0.00 0.03 0.00 97 1012.8
20260901142711 20 7 1.6 6.4 0.00 0.03 0.00 97 1012.8
20260901141922 19 42 1.6 6.4 0.00 0.03 0.00 98 1012.7
20260901141416 19 61 3.2 4.8 0.00 0.03 0.00 98 1012.5
20260901140917 19 78 3.2 4.8 0.00 0.03 0.00 98 1012.6
20260901140416 19 66 1.6 6.4 0.00 0.03 0.00 98 1012.6
20260901135916 19 82 3.2 6.4 0.00 0.05 0.00 98 1012.5
20260901135641 19 52 3.2 4.8 0.00 0.05 0.00 98 1012.6
20260901134914 19 41 1.6 3.2 0.00 0.05 0.00 98 1012.5
20260901134415 19 164 0.0 3.2 0.00 0.05 0.00 98 1012.4
20260901133914 19 164 0.0 3.2 0.00 0.05 0.00 98 1012.5
20260901133412 19 255 0.0 3.2 0.00 0.05 0.00 98 1012.5
20260901132913 19 265 1.6 4.8 0.00 0.05 0.00 98 1012.4
20260901132413 19 224 0.0 4.8 0.00 0.05 0.00 98 1012.3
20260901132140 18 210 1.6 4.8 0.00 0.05 0.00 98 1012.3
20260901131412 18 279 0.0 4.8 0.00 0.05 0.00 98 1012.3
20260901130910 18 299 0.0 4.8 0.00 0.05 0.00 98 1012.3
20260901130411 18 274 0.0 4.8 0.00 0.05 0.00 98 1012.3
20260901125911 18 279 0.0 1.6 0.00 0.05 0.00 98 1012.3
20260901125411 18 248 0.0 3.2 0.00 0.05 0.00 98 1012.3
20260901124907 18 236 1.6 3.2 0.00 0.05 0.00 98 1012.2
20260901124405 18 257 1.6 3.2 0.00 0.05 0.00 98 1012.2
20260901123906 18 271 0.0 1.6 0.00 0.05 0.00 98 1012.1
20260901123406 18 313 0.0 1.6 0.00 0.05 0.00 98 1012.1
20260901122907 18 307 0.0 4.8 0.00 0.05 0.00 98 1012.2
20260901122405 18 306 0.0 4.8 0.00 0.05 0.00 98 1012.2
20260901121905 18 305 1.6 3.2 0.00 0.05 0.00 98 1012.2
20260901121630 18 269 0.0 4.8 0.00 0.05 0.00 98 1012.2
20260901120907 18 271 0.0 4.8 0.00 0.05 0.00 98 1012.2
20260901120404 18 254 1.6 4.8 0.00 0.05 0.00 98 1012.3
20260901115904 18 326 1.6 4.8 0.00 0.05 0.00 98 1012.3
20260901115404 18 286 1.6 4.8 0.00 0.05 0.00 98 1012.2
20260901114904 18 331 0.0 3.2 0.00 0.05 0.00 98 1012.1
20260901114404 18 244 0.0 3.2 0.00 0.05 0.00 98 1012.0
20260901113905 18 302 0.0 3.2 0.00 0.05 0.00 98 1012.0
20260901113403 18 316 0.0 4.8 0.00 0.05 0.00 98 1012.0
20260901112905 18 344 1.6 4.8 0.00 0.05 0.00 98 1012.0
20260901112405 18 355 0.0 3.2 0.00 0.05 0.00 98 1012.0
20260901112137 18 2 0.0 3.2 0.00 0.05 0.00 98 1012.0
20260901111400 18 305 0.0 4.8 0.00 0.05 0.00 98 1011.9
20260901110903 18 306 0.0 4.8 0.00 0.05 0.00 98 1011.9
20260901110401 18 293 1.6 4.8 0.00 0.05 0.00 98 1011.9
20260901105859 18 305 0.0 1.6 0.00 0.05 0.00 98 1011.8
20260901105403 18 30 0.0 4.8 0.00 0.05 0.00 98 1011.7
20260901104900 18 343 0.0 4.8 0.00 0.05 0.00 98 1011.7
20260901104359 18 24 0.0 6.4 0.00 0.05 0.00 97 1011.6
20260901103900 18 319 0.0 6.4 0.00 0.05 0.00 97 1011.7
20260901103359 18 316 0.0 3.2 0.00 0.05 0.00 97 1011.8
20260901102402 18 312 0.0 8.0 0.00 0.05 0.00 97 1011.7
20260901101857 18 329 0.0 4.8 0.00 0.05 0.00 97 1011.8
20260901101357 18 21 0.0 4.8 0.00 0.05 0.00 97 1011.7
20260901100858 18 351 0.0 4.8 0.00 0.05 0.00 97 1011.6
20260901100356 18 344 0.0 3.2 0.00 0.05 0.00 97 1011.6
20260901095855 18 25 0.0 4.8 0.00 0.05 0.00 97 1011.6
20260901095625 18 58 0.0 6.4 0.00 0.05 0.00 97 1011.6
20260901095121 18 300 1.6 6.4 0.00 0.05 0.00 97 1011.6
20260901094357 18 347 0.0 8.0 0.00 0.05 0.00 97 1011.6
20260901094128 18 31 0.0 8.0 0.00 0.05 0.00 97 1011.6
20260901093355 18 1 3.2 8.0 0.00 0.05 0.00 97 1011.5
20260901092854 18 25 0.0 11.3 0.00 0.05 0.00 97 1011.3
20260901092355 18 298 1.6 11.3 0.00 0.05 0.00 97 1011.3
20260901091853 18 306 1.6 11.3 0.00 0.05 0.00 97 1011.4
20260901091352 18 327 3.2 11.3 0.00 0.05 0.00 97 1011.3
20260901090853 18 355 1.6 14.5 0.00 0.05 0.00 97 1011.3
20260901090352 19 278 1.6 14.5 0.00 0.05 0.00 97 1011.1
20260901085850 19 21 1.6 8.0 0.00 0.05 0.00 97 1011.0
20260901085351 19 15 0.0 6.4 0.00 0.05 0.00 97 1011.0
20260901084852 20 313 1.6 14.5 0.00 0.05 0.00 97 1010.9
20260901084351 20 295 1.6 14.5 0.00 0.05 0.00 97 1010.9
20260901083850 20 292 1.6 8.0 0.00 0.05 0.00 97 1010.9
20260901083350 20 336 1.6 9.7 0.00 0.05 0.00 97 1010.8
20260901082850 20 276 1.6 9.7 0.00 0.05 0.00 97 1010.7
20260901082349 20 350 1.6 9.7 0.00 0.05 0.00 97 1010.7
20260901082121 20 320 4.8 9.7 0.00 0.05 0.00 97 1010.7
20260901080847 20 309 3.2 11.3 0.00 0.05 0.00 97 1010.7
20260901080346 20 8 1.6 6.4 0.00 0.05 0.00 97 1010.7
20260901075845 20 309 1.6 6.4 0.00 0.05 0.00 97 1010.6
20260901075346 20 312 0.0 4.8 0.00 0.05 0.00 97 1010.6
20260901074845 20 316 1.6 4.8 0.00 0.05 0.00 97 1010.5
20260901074345 20 324 1.6 4.8 0.00 0.05 0.00 97 1010.6
20260901073845 20 316 0.0 6.4 0.00 0.05 0.00 97 1010.5
20260901073345 20 310 1.6 6.4 0.00 0.05 0.00 97 1010.5
20260901072844 20 305 1.6 8.0 0.00 0.05 0.00 97 1010.4
20260901072342 20 305 3.2 8.0 0.00 0.05 0.00 97 1010.4
20260901072110 20 322 3.2 6.4 0.00 0.05 0.00 97 1010.3
20260901071340 20 288 3.2 8.0 0.00 0.05 0.00 97 1010.5
20260901070839 19 272 3.2 8.0 0.00 0.05 0.00 97 1010.4
20260901070559 18 296 4.8 6.4 0.00 0.05 0.00 96 1010.3
20260901065832 18 275 3.2 4.8 0.00 0.05 0.00 96 1010.3
20260901065332 18 281 0.0 1.6 0.00 0.05 0.00 96 1010.2
20260901064833 18 236 0.0 0.0 0.00 0.05 0.00 95 1010.1
20260901064332 18 28 0.0 0.0 0.00 0.05 0.00 95 1010.1
20260901063832 18 28 0.0 0.0 0.00 0.05 0.00 95 1010.2
20260901063332 18 28 0.0 0.0 0.00 0.05 0.00 95 1010.2
20260901062836 18 28 0.0 0.0 0.00 0.05 0.00 95 1010.1
20260901062604 18 28 0.0 0.0 0.00 0.05 0.00 95 1010.1
20260901061327 19 28 0.0 0.0 0.00 0.05 0.00 95 1010.2
20260901060826 19 28 0.0 0.0 0.00 0.05 0.00 95 1010.1
20260901060327 19 28 0.0 0.0 0.00 0.05 0.00 95 1010.0
20260901055826 19 28 0.0 1.6 0.00 0.05 0.00 95 1010.1
20260901055554 19 28 0.0 1.6 0.00 0.05 0.00 94 1010.2
20260901054827 19 30 0.0 1.6 0.00 0.05 0.00 94 1010.1
20260901054327 19 48 0.0 1.6 0.00 0.05 0.00 94 1010.1
20260901053827 19 48 1.6 1.6 0.00 0.05 0.00 94 1010.1
20260901053325 20 47 0.0 0.0 0.00 0.05 0.00 94 1010.3
20260901052826 20 47 0.0 0.0 0.00 0.05 0.00 94 1010.3
20260901052553 20 45 0.0 0.0 0.00 0.05 0.00 94 1010.3
20260901052054 20 45 0.0 0.0 0.00 0.05 0.00 94 1010.3
20260901051325 20 47 0.0 0.0 0.00 0.05 0.00 93 1010.4
20260901051054 20 47 0.0 1.6 0.00 0.05 0.00 93 1010.3
20260901050326 20 45 0.0 3.2 0.00 0.05 0.00 94 1010.3
20260901045821 20 45 1.6 3.2 0.00 0.05 0.00 94 1010.5
20260901045321 20 52 1.6 1.6 0.00 0.05 0.00 93 1010.5
20260901044822 20 52 0.0 1.6 0.00 0.05 0.00 93 1010.5
20260901044320 20 52 0.0 0.0 0.00 0.05 0.00 93 1010.5
20260901043819 20 52 0.0 1.6 0.00 0.05 0.00 93 1010.5
20260901043319 20 52 0.0 3.2 0.00 0.05 0.00 92 1010.4
20260901042820 21 55 0.0 3.2 0.00 0.05 0.00 93 1010.5
20260901042320 21 290 0.0 4.8 0.00 0.05 0.00 92 1010.4
20260901042047 21 31 0.0 4.8 0.00 0.05 0.00 92 1010.4
20260901041321 21 28 1.6 6.4 0.00 0.05 0.00 92 1010.5
20260901040819 22 357 0.0 9.7 0.00 0.05 0.00 94 1010.3
20260901040318 22 298 4.8 14.5 0.00 0.05 0.00 94 1010.4
20260901035819 22 268 4.8 14.5 0.00 0.05 0.05 94 1010.2
20260901035543 22 247 4.8 9.7 0.00 0.05 0.05 94 1010.1
20260901034818 22 268 4.8 9.7 0.00 0.05 0.05 94 1010.1
20260901033816 22 250 4.8 9.7 0.00 0.05 0.05 93 1010.0
20260901033317 22 268 6.4 9.7 0.00 0.05 0.05 93 1010.0
20260901032819 22 262 4.8 9.7 0.00 0.05 0.05 93 1010.0
20260901032318 22 251 4.8 9.7 0.00 0.05 0.05 92 1010.0
20260901031815 22 252 4.8 8.0 0.00 0.05 0.05 92 1010.0
20260901031316 22 228 4.8 11.3 0.00 0.05 0.05 92 1009.9
20260901030549 22 226 3.2 8.0 0.00 0.05 0.05 92 1009.9
20260901025816 22 216 4.8 8.0 0.00 0.05 0.05 92 1010.2
20260901025549 22 226 3.2 8.0 0.00 0.05 0.05 92 1010.2
20260901024814 22 210 3.2 9.7 0.00 0.05 0.05 91 1010.2
20260901024316 22 243 3.2 9.7 0.00 0.05 0.05 91 1010.2
20260901023812 22 206 4.8 9.7 0.00 0.05 0.05 91 1010.1
20260901023311 23 178 4.8 14.5 0.00 0.05 0.05 91 1010.2
20260901022810 23 212 6.4 14.5 0.00 0.05 0.05 91 1010.2
20260901022312 23 197 6.4 14.5 0.00 0.05 0.05 91 1010.0
20260901021811 23 210 6.4 14.5 0.00 0.05 0.05 91 1010.0
20260901021310 23 228 4.8 14.5 0.00 0.05 0.05 91 1010.0
20260901020811 23 189 6.4 11.3 0.00 0.05 0.05 91 1010.0
20260901020314 23 209 4.8 11.3 0.00 0.05 0.05 91 1010.1
20260901020036 23 212 3.2 9.7 0.00 0.05 0.05 91 1010.1
20260901015308 23 210 3.2 9.7 0.00 0.05 0.05 91 1010.1
20260901014809 23 227 3.2 9.7 0.00 0.05 0.05 91 1010.3
20260901014306 23 230 4.8 11.3 0.00 0.05 0.05 91 1010.3
20260901014032 23 209 6.4 16.1 0.00 0.05 0.05 90 1010.3
20260901013305 23 244 6.4 16.1 0.00 0.05 0.05 90 1010.2
20260901012806 23 261 6.4 16.1 0.00 0.05 0.05 90 1010.3
20260901012530 23 264 6.4 16.1 0.00 0.05 0.05 90 1010.1
20260901011808 23 230 4.8 16.1 0.00 0.05 0.05 90 1010.0
20260901011529 23 214 8.0 14.5 0.00 0.05 0.05 90 1010.0
20260901010805 23 197 6.4 14.5 0.00 0.05 0.05 90 1010.0
20260901010303 23 202 4.8 11.3 0.00 0.05 0.05 91 1010.0
20260901010036 23 245 4.8 11.3 0.00 0.05 0.05 91 1009.8
20260901004806 23 172 4.8 14.5 0.00 0.05 0.05 90 1009.8
20260901004304 23 186 4.8 14.5 0.00 0.05 0.05 90 1009.8
20260901004034 23 212 6.4 11.3 0.00 0.05 0.05 90 1009.8
20260901003302 23 220 6.4 11.3 0.00 0.05 0.05 90 1009.7